Weather History for Clarion, IA

Change the Weather History Date:

Sunday, November 11, 2012

  Actual Average Record
Temperature  
Mean Temperature - -  
Max Temperature - 41 °F 69 °F (2007)
Min Temperature - 23 °F -9 °F (1986)
Moisture  
Dew Point -    
Average Humidity    
Maximum Humidity    
Minimum Humidity    
Precipitation  
Precipitation 0.17 in - - ()
Sea Level Pressure  
Sea Level Pressure 29.83 in    
Wind  
Wind Speed 13 mph (WNW)    
Max Wind Speed 22 mph    
Max Gust Speed 30 mph    
Visibility 8 miles    
Events Rain    
Averages and records for this station are not official NWS values.
T = Trace of Precipitation, MM = Missing Value Source: NWS Daily Summary

Daily Weather History Graph

Daily Weather History Graph

Search for Another Location

Airport:

Trip Planner

Search our weather history database for the weather conditions in past years. The results will help you decide how hot, cold, wet, or windy it might be!

Date:

Astronomy

Nov. 11, 2012 Rise Set
Actual Time 7:02 AM CST 4:55 PM CST
Civil Twilight 6:32 AM CST 5:25 PM CST
Nautical Twilight 5:58 AM CST 5:59 PM CST
Astronomical Twilight 5:24 AM CST 6:32 PM CST
Moon 4:14 AM CST (11/11) 3:21 PM CST (11/11)
Length of Visible Light 10h 53m
Length of Day
9h 53m
Waning Crescent, 7% of the Moon is Illuminated
Nov 11
Waning Crescent
Nov 13
New
Nov 20
First Quarter
Nov 28
Full
Dec 6
Last Quarter

Hourly Weather History & Observations

Time (CST) Temp. Dew Point Humidity Pressure Visibility Wind Dir Wind Speed Gust Speed Precip Events Conditions
12:15 AM - - N/A% 29.63 in 10.0 mi SSW 9.2 mph - N/A   Overcast
12:35 AM - - N/A% 29.60 in 10.0 mi South 6.9 mph - N/A   Scattered Clouds
12:55 AM - - N/A% 29.63 in 10.0 mi South 5.8 mph - N/A   Mostly Cloudy
1:15 AM - - N/A% 29.63 in 10.0 mi South 5.8 mph - N/A Rain Light Rain
1:35 AM - - N/A% 29.64 in 10.0 mi SW 5.8 mph - N/A Rain Light Rain
1:55 AM - - N/A% 29.63 in 10.0 mi Calm Calm - 0.01 in Rain Light Rain
2:15 AM - - N/A% 29.65 in 10.0 mi WSW 9.2 mph - N/A Rain Light Rain
2:35 AM - - N/A% 29.64 in 10.0 mi WSW 8.1 mph - N/A Rain Light Rain
2:55 AM - - N/A% 29.65 in 10.0 mi West 9.2 mph - N/A   Drizzle
3:15 AM - - N/A% 29.66 in 7.0 mi West 13.8 mph - 0.02 in Rain Light Rain
3:35 AM - - N/A% 29.66 in 7.0 mi WNW 11.5 mph - 0.06 in Rain Light Rain
3:55 AM - - N/A% 29.66 in 10.0 mi WNW 18.4 mph 24.2 mph 0.08 in Rain Light Rain
4:15 AM - - N/A% 29.68 in 10.0 mi WNW 9.2 mph - N/A   Overcast
4:35 AM - - N/A% 29.69 in 10.0 mi WNW 13.8 mph - N/A   Overcast
4:55 AM - - N/A% 29.68 in 4.0 mi WNW 15.0 mph - N/A   Drizzle
5:35 AM - - N/A% 29.73 in 7.0 mi WNW 16.1 mph 21.9 mph N/A   Overcast
5:55 AM - - N/A% 29.73 in 4.0 mi WNW 17.3 mph 23.0 mph N/A Rain Heavy Rain
6:15 AM - - N/A% 29.72 in 3.0 mi WNW 15.0 mph - 0.03 in Rain Heavy Rain
6:35 AM - - N/A% 29.70 in 5.0 mi NW 12.7 mph - 0.07 in Rain Rain
6:55 AM - - N/A% 29.72 in 7.0 mi WNW 15.0 mph - 0.07 in   Drizzle
7:35 AM - - N/A% 29.78 in 7.0 mi WNW 15.0 mph 23.0 mph N/A Rain Light Rain
7:55 AM - - N/A% 29.78 in 4.0 mi NW 16.1 mph - N/A   Drizzle
8:15 AM - - N/A% 29.78 in 4.0 mi NW 13.8 mph 21.9 mph 0.01 in Rain Light Rain
8:35 AM - - N/A% 29.77 in 4.0 mi WNW 17.3 mph 21.9 mph 0.01 in   Drizzle
8:55 AM - - N/A% 29.75 in 5.0 mi NW 20.7 mph - 0.01 in   Light Drizzle
9:35 AM - - N/A% 29.81 in 7.0 mi NW 17.3 mph 20.7 mph N/A   Overcast
9:55 AM - - N/A% 29.82 in 7.0 mi WNW 19.6 mph 29.9 mph N/A   Overcast
10:15 AM - - N/A% 29.79 in 3.0 mi NW 19.6 mph - N/A   Overcast
10:35 AM - - N/A% 29.82 in 5.0 mi NW 17.3 mph - N/A   Haze
10:55 AM - - N/A% 29.83 in 10.0 mi NW 17.3 mph 20.7 mph N/A   Overcast
11:15 AM - - N/A% 29.79 in 10.0 mi NW 16.1 mph - N/A   Overcast
11:35 AM - - N/A% 29.79 in 4.0 mi NW 16.1 mph - N/A   Haze
11:55 AM - - N/A% 29.81 in 7.0 mi NW 18.4 mph - N/A   Overcast
12:15 PM - - N/A% 29.81 in 5.0 mi WNW 17.3 mph 21.9 mph N/A   Haze
12:35 PM - - N/A% 29.82 in 3.0 mi WNW 16.1 mph 25.3 mph N/A   Overcast
12:55 PM - - N/A% 29.83 in 5.0 mi WNW 18.4 mph 24.2 mph N/A   Overcast
1:15 PM - - N/A% 29.83 in 7.0 mi WNW 16.1 mph 23.0 mph N/A   Overcast
1:35 PM - - N/A% 29.84 in 10.0 mi WNW 17.3 mph 24.2 mph N/A   Overcast
1:55 PM - - N/A% 29.83 in 10.0 mi WNW 19.6 mph 23.0 mph N/A   Overcast
2:15 PM - - N/A% 29.85 in 10.0 mi WNW 19.6 mph - N/A   Overcast
2:35 PM - - N/A% 29.84 in 10.0 mi WNW 19.6 mph 27.6 mph N/A   Overcast
2:55 PM - - N/A% 29.86 in 10.0 mi West 17.3 mph 23.0 mph N/A   Overcast
3:15 PM - - N/A% 29.87 in 10.0 mi WNW 16.1 mph 21.9 mph N/A   Overcast
3:35 PM - - N/A% 29.87 in 10.0 mi WNW 18.4 mph 25.3 mph N/A   Overcast
3:55 PM - - N/A% 29.87 in 10.0 mi WNW 21.9 mph - N/A   Mostly Cloudy
4:15 PM - - N/A% 29.87 in 10.0 mi WNW 19.6 mph 28.8 mph N/A   Mostly Cloudy
4:35 PM - - N/A% 29.90 in 10.0 mi WNW 18.4 mph 25.3 mph N/A   Mostly Cloudy
4:55 PM - - N/A% 29.91 in 10.0 mi West 19.6 mph 25.3 mph N/A   Scattered Clouds
5:15 PM - - N/A% 29.92 in 10.0 mi West 18.4 mph 24.2 mph N/A   Scattered Clouds
5:35 PM - - N/A% 29.93 in 10.0 mi West 16.1 mph 23.0 mph N/A   Scattered Clouds
5:55 PM - - N/A% 29.95 in 10.0 mi West 18.4 mph 24.2 mph N/A   Scattered Clouds
6:15 PM - - N/A% 29.97 in 10.0 mi West 15.0 mph - N/A   Clear
6:35 PM - - N/A% 29.97 in 10.0 mi West 18.4 mph - N/A   Scattered Clouds
6:55 PM - - N/A% 29.98 in 10.0 mi West 16.1 mph - N/A   Clear
7:15 PM - - N/A% 29.98 in 10.0 mi West 16.1 mph - N/A   Clear
7:35 PM - - N/A% 29.99 in 10.0 mi West 13.8 mph - N/A   Clear
7:55 PM - - N/A% 30.00 in 10.0 mi West 16.1 mph 21.9 mph N/A   Clear
8:15 PM - - N/A% 30.01 in 10.0 mi West 15.0 mph 21.9 mph N/A   Clear
8:35 PM - - N/A% 30.01 in 10.0 mi West 13.8 mph - N/A   Clear
8:55 PM - - N/A% 30.01 in 10.0 mi West 16.1 mph - N/A   Clear
9:15 PM - - N/A% 30.02 in 10.0 mi West 15.0 mph - N/A   Clear
9:35 PM - - N/A% 30.03 in 10.0 mi West 18.4 mph 25.3 mph N/A   Clear
9:55 PM - - N/A% 30.04 in 10.0 mi West 20.7 mph 25.3 mph N/A   Clear
10:15 PM - - N/A% 30.04 in 10.0 mi West 18.4 mph 26.5 mph N/A   Clear
10:35 PM - - N/A% 30.04 in 10.0 mi West 17.3 mph 21.9 mph N/A   Clear
10:55 PM - - N/A% 30.04 in 10.0 mi West 12.7 mph - N/A   Clear
11:15 PM - - N/A% 30.05 in 10.0 mi West 10.4 mph - N/A   Clear
11:35 PM - - N/A% 30.05 in 10.0 mi West 9.2 mph - N/A   Clear
11:55 PM - - N/A% 30.05 in 10.0 mi West 11.5 mph - N/A   Clear